000000,20.6309, 31 Oct 2015, 00:00:35
000030,20.6321, 31 Oct 2015, 00:01:05
000100,20.6338, 31 Oct 2015, 00:01:35
000130,20.6382, 31 Oct 2015, 00:02:05
000200,20.6414, 31 Oct 2015, 00:02:35
000230,20.644, 31 Oct 2015, 00:03:05
000300,20.6443, 31 Oct 2015, 00:03:35
000330,20.6454, 31 Oct 2015, 00:04:04
000400,20.647, 31 Oct 2015, 00:04:35
000430,20.6476, 31 Oct 2015, 00:05:05
000500,20.6477, 31 Oct 2015, 00:05:35
000530,20.6478, 31 Oct 2015, 00:06:04
000600,20.6481, 31 Oct 2015, 00:06:35
000630,20.6476, 31 Oct 2015, 00:07:05
000700,20.6455, 31 Oct 2015, 00:07:35
000730,20.6446, 31 Oct 2015, 00:08:04
000800,20.6444, 31 Oct 2015, 00:08:35
000830,20.6436, 31 Oct 2015, 00:09:05
000900,20.6422, 31 Oct 2015, 00:09:35
000930,20.6407, 31 Oct 2015, 00:10:05
001000,20.6385, 31 Oct 2015, 00:10:34
001030,20.6381, 31 Oct 2015, 00:11:05
001100,20.6414, 31 Oct 2015, 00:11:35
001130,20.646, 31 Oct 2015, 00:12:05
001200,20.6497, 31 Oct 2015, 00:12:34
001230,20.6508, 31 Oct 2015, 00:13:05
001300,20.6485, 31 Oct 2015, 00:13:35
001330,20.6462, 31 Oct 2015, 00:14:04
001400,20.6431, 31 Oct 2015, 00:14:34
001430,20.6405, 31 Oct 2015, 00:15:05
001500,20.6386, 31 Oct 2015, 00:15:35
001530,20.6353, 31 Oct 2015, 00:16:04
001600,20.6303, 31 Oct 2015, 00:16:34
001630,20.6235, 31 Oct 2015, 00:17:05
001700,20.6149, 31 Oct 2015, 00:17:35
001800,20.5967, 31 Oct 2015, 00:18:34
001830,20.5898, 31 Oct 2015, 00:19:05
001900,20.5829, 31 Oct 2015, 00:19:35
001930,20.5757, 31 Oct 2015, 00:20:05
002000,20.5709, 31 Oct 2015, 00:20:34
002030,20.5662, 31 Oct 2015, 00:21:04
002100,20.5646, 31 Oct 2015, 00:21:35
002130,20.5639, 31 Oct 2015, 00:22:05
002200,20.5603, 31 Oct 2015, 00:22:34
002230,20.5532, 31 Oct 2015, 00:23:05
002300,20.5411, 31 Oct 2015, 00:23:36
002330,20.5284, 31 Oct 2015, 00:24:05
002400,20.513, 31 Oct 2015, 00:24:35
002430,20.4953, 31 Oct 2015, 00:25:05
002500,20.4782, 31 Oct 2015, 00:25:36
002530,20.4647, 31 Oct 2015, 00:26:05
002600,20.4522, 31 Oct 2015, 00:26:35
002630,20.4417, 31 Oct 2015, 00:27:05
002700,20.4354, 31 Oct 2015, 00:27:36
002730,20.43, 31 Oct 2015, 00:28:05
002800,20.4268, 31 Oct 2015, 00:28:35
002830,20.4254, 31 Oct 2015, 00:29:05
002900,20.4268, 31 Oct 2015, 00:29:36
003000,20.4279, 31 Oct 2015, 00:30:35
003030,20.4265, 31 Oct 2015, 00:31:05
003100,20.4249, 31 Oct 2015, 00:31:36
003130,20.4222, 31 Oct 2015, 00:32:06
003200,20.4187, 31 Oct 2015, 00:32:35
003230,20.4159, 31 Oct 2015, 00:33:05
003300,20.4118, 31 Oct 2015, 00:33:35
003330,20.4085, 31 Oct 2015, 00:34:05
003400,20.4064, 31 Oct 2015, 00:34:35
003430,20.4055, 31 Oct 2015, 00:35:05
003500,20.4066, 31 Oct 2015, 00:35:35
003530,20.406, 31 Oct 2015, 00:36:05
003600,20.4028, 31 Oct 2015, 00:36:35
003630,20.4009, 31 Oct 2015, 00:37:05
003700,20.4008, 31 Oct 2015, 00:37:35
003800,20.4046, 31 Oct 2015, 00:38:35
003830,20.4049, 31 Oct 2015, 00:39:05
003900,20.4054, 31 Oct 2015, 00:39:35
003930,20.4067, 31 Oct 2015, 00:40:06
004000,20.4074, 31 Oct 2015, 00:40:35
004030,20.4078, 31 Oct 2015, 00:41:05
004100,20.4082, 31 Oct 2015, 00:41:35
004130,20.4085, 31 Oct 2015, 00:42:05
004200,20.4083, 31 Oct 2015, 00:42:35
004230,20.4108, 31 Oct 2015, 00:43:05
004300,20.4141, 31 Oct 2015, 00:43:35
004330,20.415, 31 Oct 2015, 00:44:04
004400,20.4161, 31 Oct 2015, 00:44:35
004430,20.4171, 31 Oct 2015, 00:45:05
004500,20.418, 31 Oct 2015, 00:45:35
004530,20.4178, 31 Oct 2015, 00:46:04
004600,20.4169, 31 Oct 2015, 00:46:35
004630,20.4165, 31 Oct 2015, 00:47:05
004700,20.4163, 31 Oct 2015, 00:47:35
004800,20.4198, 31 Oct 2015, 00:48:35
004830,20.4231, 31 Oct 2015, 00:49:05
004900,20.426, 31 Oct 2015, 00:49:35
004930,20.4266, 31 Oct 2015, 00:50:05
005000,20.4266, 31 Oct 2015, 00:50:35
005030,20.4253, 31 Oct 2015, 00:51:05
005100,20.426, 31 Oct 2015, 00:51:35
005130,20.4261, 31 Oct 2015, 00:52:05
005200,20.4276, 31 Oct 2015, 00:52:34
005230,20.43, 31 Oct 2015, 00:53:05
005300,20.4331, 31 Oct 2015, 00:53:35
005330,20.4352, 31 Oct 2015, 00:54:04
005400,20.4378, 31 Oct 2015, 00:54:34
005430,20.4382, 31 Oct 2015, 00:55:05
005500,20.438, 31 Oct 2015, 00:55:35
005530,20.4366, 31 Oct 2015, 00:56:04
005600,20.4343, 31 Oct 2015, 00:56:34
005630,20.4331, 31 Oct 2015, 00:57:05
005700,20.4335, 31 Oct 2015, 00:57:35
005800,20.4402, 31 Oct 2015, 00:58:34
005830,20.4428, 31 Oct 2015, 00:59:05
005900,20.4442, 31 Oct 2015, 00:59:35
005930,20.4448, 31 Oct 2015, 01:00:05
010000,20.4442, 31 Oct 2015, 01:00:34
010030,20.442, 31 Oct 2015, 01:01:05
010100,20.4388, 31 Oct 2015, 01:01:35
010130,20.4375, 31 Oct 2015, 01:02:05
010200,20.437, 31 Oct 2015, 01:02:34
010230,20.4358, 31 Oct 2015, 01:03:04
010300,20.4338, 31 Oct 2015, 01:03:35
010330,20.4331, 31 Oct 2015, 01:04:05
010400,20.433, 31 Oct 2015, 01:04:34
010430,20.4348, 31 Oct 2015, 01:05:04
010500,20.436, 31 Oct 2015, 01:05:34
010530,20.4374, 31 Oct 2015, 01:06:05
010600,20.4374, 31 Oct 2015, 01:06:34
010630,20.4379, 31 Oct 2015, 01:07:04
010700,20.4384, 31 Oct 2015, 01:07:34
010730,20.4381, 31 Oct 2015, 01:08:05
010800,20.437, 31 Oct 2015, 01:08:35
010830,20.4335, 31 Oct 2015, 01:09:04
010900,20.4296, 31 Oct 2015, 01:09:34
010930,20.4242, 31 Oct 2015, 01:10:05
011000,20.4222, 31 Oct 2015, 01:10:35
011030,20.423, 31 Oct 2015, 01:11:04
011100,20.4247, 31 Oct 2015, 01:11:34
011130,20.4256, 31 Oct 2015, 01:12:04
011200,20.4251, 31 Oct 2015, 01:12:35
011230,20.4224, 31 Oct 2015, 01:13:05
011300,20.418, 31 Oct 2015, 01:13:35
011330,20.4118, 31 Oct 2015, 01:14:05
011400,20.4071, 31 Oct 2015, 01:14:35
011430,20.4058, 31 Oct 2015, 01:15:05
011500,20.4063, 31 Oct 2015, 01:15:35
011530,20.4067, 31 Oct 2015, 01:16:05
011600,20.4048, 31 Oct 2015, 01:16:36
011630,20.4035, 31 Oct 2015, 01:17:05
011700,20.4026, 31 Oct 2015, 01:17:35
011730,20.404, 31 Oct 2015, 01:18:05
011800,20.4048, 31 Oct 2015, 01:18:36
011830,20.4043, 31 Oct 2015, 01:19:05
011900,20.4032, 31 Oct 2015, 01:19:35
011930,20.4024, 31 Oct 2015, 01:20:05
012000,20.4024, 31 Oct 2015, 01:20:35
012030,20.4011, 31 Oct 2015, 01:21:05
012100,20.4009, 31 Oct 2015, 01:21:35
012130,20.401, 31 Oct 2015, 01:22:05
012200,20.4001, 31 Oct 2015, 01:22:35
012230,20.4002, 31 Oct 2015, 01:23:05
012300,20.3994, 31 Oct 2015, 01:23:35
012330,20.3981, 31 Oct 2015, 01:24:05
012400,20.3961, 31 Oct 2015, 01:24:35
012430,20.394, 31 Oct 2015, 01:25:05
012500,20.3931, 31 Oct 2015, 01:25:35
012530,20.393, 31 Oct 2015, 01:26:05
012600,20.3936, 31 Oct 2015, 01:26:35
012630,20.3939, 31 Oct 2015, 01:27:04
012700,20.3916, 31 Oct 2015, 01:27:35
012730,20.388, 31 Oct 2015, 01:28:05
012800,20.3838, 31 Oct 2015, 01:28:35
012830,20.3809, 31 Oct 2015, 01:29:04
012900,20.3787, 31 Oct 2015, 01:29:35
012930,20.378, 31 Oct 2015, 01:30:05
013000,20.3796, 31 Oct 2015, 01:30:35
013030,20.3816, 31 Oct 2015, 01:31:05
013100,20.3851, 31 Oct 2015, 01:31:35
013130,20.3878, 31 Oct 2015, 01:32:05
013200,20.3893, 31 Oct 2015, 01:32:35
013230,20.3882, 31 Oct 2015, 01:33:04
013300,20.3877, 31 Oct 2015, 01:33:34
013330,20.3877, 31 Oct 2015, 01:34:05
013400,20.39, 31 Oct 2015, 01:34:35
013430,20.3925, 31 Oct 2015, 01:35:04
013500,20.3929, 31 Oct 2015, 01:35:34
013530,20.392, 31 Oct 2015, 01:36:05
013600,20.3906, 31 Oct 2015, 01:36:35
013700,20.3885, 31 Oct 2015, 01:37:34
013730,20.3892, 31 Oct 2015, 01:38:05
013800,20.3894, 31 Oct 2015, 01:38:35
013830,20.3903, 31 Oct 2015, 01:39:05
013900,20.3896, 31 Oct 2015, 01:39:34
013930,20.3888, 31 Oct 2015, 01:40:05
014000,20.3895, 31 Oct 2015, 01:40:35
014030,20.3912, 31 Oct 2015, 01:41:05
014100,20.3924, 31 Oct 2015, 01:41:34
014130,20.3935, 31 Oct 2015, 01:42:04
014200,20.3942, 31 Oct 2015, 01:42:35
014230,20.3938, 31 Oct 2015, 01:43:04
014300,20.3934, 31 Oct 2015, 01:43:34
014330,20.3938, 31 Oct 2015, 01:44:04
014400,20.3937, 31 Oct 2015, 01:44:35
014500,20.3942, 31 Oct 2015, 01:45:34
014530,20.3936, 31 Oct 2015, 01:46:04
014600,20.3919, 31 Oct 2015, 01:46:35
014630,20.3886, 31 Oct 2015, 01:47:05
014700,20.3855, 31 Oct 2015, 01:47:34
014730,20.3832, 31 Oct 2015, 01:48:04
014800,20.3819, 31 Oct 2015, 01:48:35
014830,20.3806, 31 Oct 2015, 01:49:05
014900,20.3801, 31 Oct 2015, 01:49:34
014930,20.3787, 31 Oct 2015, 01:50:04
015000,20.3772, 31 Oct 2015, 01:50:35
015030,20.3762, 31 Oct 2015, 01:51:05
015100,20.3748, 31 Oct 2015, 01:51:34
015130,20.373, 31 Oct 2015, 01:52:04
015200,20.3714, 31 Oct 2015, 01:52:34
015230,20.3704, 31 Oct 2015, 01:53:05
015300,20.3697, 31 Oct 2015, 01:53:35
015330,20.3702, 31 Oct 2015, 01:54:05
015400,20.3697, 31 Oct 2015, 01:54:35
015430,20.369, 31 Oct 2015, 01:55:05
015500,20.368, 31 Oct 2015, 01:55:35
015530,20.3663, 31 Oct 2015, 01:56:05
015600,20.3647, 31 Oct 2015, 01:56:35
015700,20.3667, 31 Oct 2015, 01:57:35
015730,20.369, 31 Oct 2015, 01:58:05
015800,20.3718, 31 Oct 2015, 01:58:35
015830,20.3746, 31 Oct 2015, 01:59:06
015900,20.3763, 31 Oct 2015, 01:59:35
015930,20.3758, 31 Oct 2015, 02:00:05
020000,20.3747, 31 Oct 2015, 02:00:35
020030,20.373, 31 Oct 2015, 02:01:05
020100,20.372, 31 Oct 2015, 02:01:35
020130,20.3708, 31 Oct 2015, 02:02:05
020200,20.371, 31 Oct 2015, 02:02:35
020230,20.3707, 31 Oct 2015, 02:03:05
020300,20.3708, 31 Oct 2015, 02:03:35
020330,20.3707, 31 Oct 2015, 02:04:05
020400,20.371, 31 Oct 2015, 02:04:35
020430,20.3709, 31 Oct 2015, 02:05:05
020500,20.3715, 31 Oct 2015, 02:05:34
020530,20.3708, 31 Oct 2015, 02:06:05
020600,20.3694, 31 Oct 2015, 02:06:35
020630,20.3672, 31 Oct 2015, 02:07:05
020700,20.3645, 31 Oct 2015, 02:07:35
020730,20.363, 31 Oct 2015, 02:08:05
020800,20.363, 31 Oct 2015, 02:08:35
020830,20.3633, 31 Oct 2015, 02:09:05
020900,20.3642, 31 Oct 2015, 02:09:35
020930,20.3627, 31 Oct 2015, 02:10:04
021000,20.3616, 31 Oct 2015, 02:10:35
021030,20.3598, 31 Oct 2015, 02:11:05
021100,20.3594, 31 Oct 2015, 02:11:35
021130,20.3581, 31 Oct 2015, 02:12:05
021200,20.3569, 31 Oct 2015, 02:12:35
021230,20.3558, 31 Oct 2015, 02:13:05
021300,20.3552, 31 Oct 2015, 02:13:35
021330,20.355, 31 Oct 2015, 02:14:04
021400,20.3553, 31 Oct 2015, 02:14:34
021430,20.3563, 31 Oct 2015, 02:15:05
021500,20.3571, 31 Oct 2015, 02:15:35
021530,20.3571, 31 Oct 2015, 02:16:04
021600,20.3563, 31 Oct 2015, 02:16:34
021630,20.3548, 31 Oct 2015, 02:17:05
021700,20.3524, 31 Oct 2015, 02:17:35
021730,20.3501, 31 Oct 2015, 02:18:05
021800,20.348, 31 Oct 2015, 02:18:34
021830,20.3469, 31 Oct 2015, 02:19:05
021900,20.345, 31 Oct 2015, 02:19:35
021930,20.3441, 31 Oct 2015, 02:20:05
022000,20.3438, 31 Oct 2015, 02:20:34
022030,20.3448, 31 Oct 2015, 02:21:05
022100,20.3453, 31 Oct 2015, 02:21:35
022130,20.345, 31 Oct 2015, 02:22:05
022200,20.345, 31 Oct 2015, 02:22:34
022230,20.3437, 31 Oct 2015, 02:23:04
022300,20.3427, 31 Oct 2015, 02:23:35
022330,20.3443, 31 Oct 2015, 02:24:04
022400,20.3456, 31 Oct 2015, 02:24:34
022430,20.3464, 31 Oct 2015, 02:25:04
022500,20.3465, 31 Oct 2015, 02:25:35
022600,20.3422, 31 Oct 2015, 02:26:34
022630,20.3407, 31 Oct 2015, 02:27:04
022700,20.3403, 31 Oct 2015, 02:27:35
022730,20.3394, 31 Oct 2015, 02:28:05
022800,20.3388, 31 Oct 2015, 02:28:34
022830,20.3383, 31 Oct 2015, 02:29:04
022900,20.3397, 31 Oct 2015, 02:29:35
022930,20.34, 31 Oct 2015, 02:30:05
023000,20.3418, 31 Oct 2015, 02:30:34
023030,20.3439, 31 Oct 2015, 02:31:04
023100,20.3457, 31 Oct 2015, 02:31:35
023130,20.3464, 31 Oct 2015, 02:32:05
023200,20.347, 31 Oct 2015, 02:32:34
023230,20.3461, 31 Oct 2015, 02:33:05
023300,20.347, 31 Oct 2015, 02:33:36
023330,20.3488, 31 Oct 2015, 02:34:05
023400,20.3507, 31 Oct 2015, 02:34:35
023430,20.3535, 31 Oct 2015, 02:35:05
023500,20.3545, 31 Oct 2015, 02:35:35
023530,20.3564, 31 Oct 2015, 02:36:05
023600,20.3563, 31 Oct 2015, 02:36:35
023630,20.3568, 31 Oct 2015, 02:37:05
023700,20.3566, 31 Oct 2015, 02:37:35
023800,20.3557, 31 Oct 2015, 02:38:35
023830,20.356, 31 Oct 2015, 02:39:05
023900,20.3556, 31 Oct 2015, 02:39:35
023930,20.3551, 31 Oct 2015, 02:40:06
024000,20.3542, 31 Oct 2015, 02:40:35
024030,20.3531, 31 Oct 2015, 02:41:05
024100,20.3526, 31 Oct 2015, 02:41:35
024130,20.3526, 31 Oct 2015, 02:42:06
024200,20.3525, 31 Oct 2015, 02:42:35
024230,20.3532, 31 Oct 2015, 02:43:05
024300,20.3533, 31 Oct 2015, 02:43:35
024330,20.3535, 31 Oct 2015, 02:44:04
024400,20.3542, 31 Oct 2015, 02:44:35
024430,20.3542, 31 Oct 2015, 02:45:05
024500,20.3537, 31 Oct 2015, 02:45:35
024600,20.3527, 31 Oct 2015, 02:46:35
024630,20.3525, 31 Oct 2015, 02:47:05
024700,20.3515, 31 Oct 2015, 02:47:35
024730,20.3512, 31 Oct 2015, 02:48:05
024800,20.3511, 31 Oct 2015, 02:48:35
024830,20.3509, 31 Oct 2015, 02:49:05
024900,20.351, 31 Oct 2015, 02:49:35
024930,20.3507, 31 Oct 2015, 02:50:05
025000,20.3508, 31 Oct 2015, 02:50:35
025030,20.3508, 31 Oct 2015, 02:51:05
025100,20.351, 31 Oct 2015, 02:51:35
025130,20.3504, 31 Oct 2015, 02:52:05
025200,20.3516, 31 Oct 2015, 02:52:35
025230,20.352, 31 Oct 2015, 02:53:05
025300,20.351, 31 Oct 2015, 02:53:35
025330,20.3506, 31 Oct 2015, 02:54:04
025400,20.35, 31 Oct 2015, 02:54:34
025430,20.349, 31 Oct 2015, 02:55:05
025500,20.3482, 31 Oct 2015, 02:55:35
025600,20.3473, 31 Oct 2015, 02:56:34
025630,20.3474, 31 Oct 2015, 02:57:05
025700,20.3466, 31 Oct 2015, 02:57:35
025730,20.3466, 31 Oct 2015, 02:58:05
025800,20.3477, 31 Oct 2015, 02:58:34
025830,20.3483, 31 Oct 2015, 02:59:05
025900,20.3503, 31 Oct 2015, 02:59:35
025930,20.3519, 31 Oct 2015, 03:00:05
030000,20.3542, 31 Oct 2015, 03:00:34
030030,20.355, 31 Oct 2015, 03:01:05
030100,20.3547, 31 Oct 2015, 03:01:35
030130,20.3548, 31 Oct 2015, 03:02:05
030230,20.3536, 31 Oct 2015, 03:03:04
030300,20.3537, 31 Oct 2015, 03:03:35
030330,20.3541, 31 Oct 2015, 03:04:05
030400,20.3544, 31 Oct 2015, 03:04:34
030430,20.3546, 31 Oct 2015, 03:05:04
030500,20.3542, 31 Oct 2015, 03:05:34
030530,20.3531, 31 Oct 2015, 03:06:05
030600,20.3527, 31 Oct 2015, 03:06:35
030630,20.3528, 31 Oct 2015, 03:07:04
030700,20.3526, 31 Oct 2015, 03:07:34
030730,20.3515, 31 Oct 2015, 03:08:05
030800,20.3499, 31 Oct 2015, 03:08:35
030830,20.3493, 31 Oct 2015, 03:09:04
030900,20.3476, 31 Oct 2015, 03:09:34
030930,20.3462, 31 Oct 2015, 03:10:04
031000,20.345, 31 Oct 2015, 03:10:35
031100,20.343, 31 Oct 2015, 03:11:34
031130,20.3424, 31 Oct 2015, 03:12:04
031200,20.3422, 31 Oct 2015, 03:12:35
031230,20.3434, 31 Oct 2015, 03:13:05
031300,20.3436, 31 Oct 2015, 03:13:35
031330,20.3436, 31 Oct 2015, 03:14:05
031400,20.3439, 31 Oct 2015, 03:14:36
031430,20.3443, 31 Oct 2015, 03:15:05
031500,20.3459, 31 Oct 2015, 03:15:35
031530,20.3452, 31 Oct 2015, 03:16:05
031600,20.3437, 31 Oct 2015, 03:16:36
031630,20.343, 31 Oct 2015, 03:17:05
031700,20.3435, 31 Oct 2015, 03:17:35
031730,20.3443, 31 Oct 2015, 03:18:05
031800,20.3446, 31 Oct 2015, 03:18:35
031900,20.3434, 31 Oct 2015, 03:19:35
031930,20.343, 31 Oct 2015, 03:20:05
032000,20.342, 31 Oct 2015, 03:20:35
032030,20.3413, 31 Oct 2015, 03:21:06
032100,20.3413, 31 Oct 2015, 03:21:35
032130,20.3403, 31 Oct 2015, 03:22:05
032200,20.3402, 31 Oct 2015, 03:22:35
032230,20.3401, 31 Oct 2015, 03:23:05
032300,20.3394, 31 Oct 2015, 03:23:35
032330,20.3391, 31 Oct 2015, 03:24:05
032400,20.3387, 31 Oct 2015, 03:24:35
032430,20.3388, 31 Oct 2015, 03:25:05
032500,20.3382, 31 Oct 2015, 03:25:35
032530,20.3385, 31 Oct 2015, 03:26:05
032600,20.3382, 31 Oct 2015, 03:26:35
032630,20.3386, 31 Oct 2015, 03:27:04
032700,20.3393, 31 Oct 2015, 03:27:35
032730,20.3394, 31 Oct 2015, 03:28:05
032800,20.3406, 31 Oct 2015, 03:28:35
032830,20.3405, 31 Oct 2015, 03:29:05
032900,20.3409, 31 Oct 2015, 03:29:35
032930,20.3406, 31 Oct 2015, 03:30:05
033000,20.3411, 31 Oct 2015, 03:30:35
033030,20.3422, 31 Oct 2015, 03:31:05
033100,20.3429, 31 Oct 2015, 03:31:35
033130,20.3442, 31 Oct 2015, 03:32:05
033200,20.344, 31 Oct 2015, 03:32:35
033230,20.3436, 31 Oct 2015, 03:33:04
033300,20.343, 31 Oct 2015, 03:33:35
033330,20.3437, 31 Oct 2015, 03:34:05
033400,20.3427, 31 Oct 2015, 03:34:35
033430,20.3425, 31 Oct 2015, 03:35:04
033500,20.3422, 31 Oct 2015, 03:35:35
033530,20.3413, 31 Oct 2015, 03:36:05
033600,20.341, 31 Oct 2015, 03:36:35
033700,20.3381, 31 Oct 2015, 03:37:34
033730,20.3365, 31 Oct 2015, 03:38:05
033800,20.3357, 31 Oct 2015, 03:38:35
033830,20.3354, 31 Oct 2015, 03:39:05
033900,20.3354, 31 Oct 2015, 03:39:34
033930,20.3367, 31 Oct 2015, 03:40:05
034000,20.3375, 31 Oct 2015, 03:40:35
034030,20.3372, 31 Oct 2015, 03:41:05
034100,20.3367, 31 Oct 2015, 03:41:34
034130,20.3361, 31 Oct 2015, 03:42:05
034200,20.3362, 31 Oct 2015, 03:42:35
034230,20.3358, 31 Oct 2015, 03:43:04
034300,20.3365, 31 Oct 2015, 03:43:34
034330,20.3362, 31 Oct 2015, 03:44:05
034400,20.3365, 31 Oct 2015, 03:44:35
034430,20.3367, 31 Oct 2015, 03:45:04
034500,20.3369, 31 Oct 2015, 03:45:34
034530,20.3369, 31 Oct 2015, 03:46:05
034600,20.3366, 31 Oct 2015, 03:46:35
034700,20.3368, 31 Oct 2015, 03:47:34
034730,20.3372, 31 Oct 2015, 03:48:04
034800,20.3369, 31 Oct 2015, 03:48:35
034830,20.3368, 31 Oct 2015, 03:49:05
034900,20.3362, 31 Oct 2015, 03:49:34
034930,20.3358, 31 Oct 2015, 03:50:04
035000,20.336, 31 Oct 2015, 03:50:35
035030,20.3353, 31 Oct 2015, 03:51:05
035100,20.3353, 31 Oct 2015, 03:51:34
035130,20.3355, 31 Oct 2015, 03:52:04
035200,20.3368, 31 Oct 2015, 03:52:35
035230,20.3375, 31 Oct 2015, 03:53:05
035300,20.3382, 31 Oct 2015, 03:53:35
035330,20.3396, 31 Oct 2015, 03:54:05
035400,20.34, 31 Oct 2015, 03:54:36
035430,20.341, 31 Oct 2015, 03:55:05
035500,20.3409, 31 Oct 2015, 03:55:35
035530,20.341, 31 Oct 2015, 03:56:05
035600,20.3414, 31 Oct 2015, 03:56:36
035630,20.3419, 31 Oct 2015, 03:57:05
035700,20.3438, 31 Oct 2015, 03:57:35
035730,20.345, 31 Oct 2015, 03:58:05
035800,20.3459, 31 Oct 2015, 03:58:36
035830,20.347, 31 Oct 2015, 03:59:05
035900,20.3493, 31 Oct 2015, 03:59:35
035930,20.3507, 31 Oct 2015, 04:00:05
040000,20.3496, 31 Oct 2015, 04:00:35
040030,20.3488, 31 Oct 2015, 04:01:06
040100,20.3477, 31 Oct 2015, 04:01:35
040130,20.3471, 31 Oct 2015, 04:02:05
040200,20.3468, 31 Oct 2015, 04:02:35
040230,20.3461, 31 Oct 2015, 04:03:05
040300,20.3459, 31 Oct 2015, 04:03:35
040330,20.3455, 31 Oct 2015, 04:04:05
040400,20.3456, 31 Oct 2015, 04:04:35
040430,20.3473, 31 Oct 2015, 04:05:05
040500,20.3478, 31 Oct 2015, 04:05:35
040530,20.3486, 31 Oct 2015, 04:06:05
040600,20.3491, 31 Oct 2015, 04:06:35
040630,20.3495, 31 Oct 2015, 04:07:05
040700,20.3496, 31 Oct 2015, 04:07:35
040730,20.3505, 31 Oct 2015, 04:08:05
040800,20.3521, 31 Oct 2015, 04:08:35
040830,20.3513, 31 Oct 2015, 04:09:05
040900,20.3496, 31 Oct 2015, 04:09:35
040930,20.3489, 31 Oct 2015, 04:10:05
041000,20.3478, 31 Oct 2015, 04:10:35
041030,20.3472, 31 Oct 2015, 04:11:05
041100,20.3472, 31 Oct 2015, 04:11:35
041130,20.3468, 31 Oct 2015, 04:12:05
041200,20.3476, 31 Oct 2015, 04:12:35
041230,20.3468, 31 Oct 2015, 04:13:05
041300,20.3467, 31 Oct 2015, 04:13:34
041330,20.3469, 31 Oct 2015, 04:14:05
041400,20.3468, 31 Oct 2015, 04:14:35
041430,20.3478, 31 Oct 2015, 04:15:05
041530,20.3483, 31 Oct 2015, 04:16:04
041600,20.3479, 31 Oct 2015, 04:16:35
041630,20.3478, 31 Oct 2015, 04:17:05
041700,20.3472, 31 Oct 2015, 04:17:35
041730,20.347, 31 Oct 2015, 04:18:04
041800,20.3463, 31 Oct 2015, 04:18:35
041830,20.3452, 31 Oct 2015, 04:19:05
041900,20.3453, 31 Oct 2015, 04:19:35
041930,20.3452, 31 Oct 2015, 04:20:04
042000,20.3453, 31 Oct 2015, 04:20:35
042030,20.3456, 31 Oct 2015, 04:21:05
042100,20.346, 31 Oct 2015, 04:21:35
042130,20.3466, 31 Oct 2015, 04:22:04
042200,20.3466, 31 Oct 2015, 04:22:35
042230,20.3462, 31 Oct 2015, 04:23:05
042330,20.3453, 31 Oct 2015, 04:24:04
042400,20.3447, 31 Oct 2015, 04:24:34
042430,20.3441, 31 Oct 2015, 04:25:05
042500,20.3448, 31 Oct 2015, 04:25:35
042530,20.3452, 31 Oct 2015, 04:26:04
042600,20.3448, 31 Oct 2015, 04:26:34
042630,20.3453, 31 Oct 2015, 04:27:05
042700,20.3443, 31 Oct 2015, 04:27:35
042730,20.3441, 31 Oct 2015, 04:28:04
042800,20.3446, 31 Oct 2015, 04:28:34
042830,20.3464, 31 Oct 2015, 04:29:05
042900,20.3477, 31 Oct 2015, 04:29:35
042930,20.3478, 31 Oct 2015, 04:30:04
043000,20.3476, 31 Oct 2015, 04:30:34
043030,20.3474, 31 Oct 2015, 04:31:05
043100,20.3459, 31 Oct 2015, 04:31:35
043130,20.3456, 31 Oct 2015, 04:32:04
043200,20.3452, 31 Oct 2015, 04:32:34
043230,20.3441, 31 Oct 2015, 04:33:06
043300,20.3432, 31 Oct 2015, 04:33:35
043330,20.3434, 31 Oct 2015, 04:34:05
043400,20.3447, 31 Oct 2015, 04:34:35
043430,20.346, 31 Oct 2015, 04:35:06
043530,20.3452, 31 Oct 2015, 04:36:05
043600,20.3443, 31 Oct 2015, 04:36:35
043630,20.3431, 31 Oct 2015, 04:37:05
043700,20.343, 31 Oct 2015, 04:37:36
043730,20.3432, 31 Oct 2015, 04:38:05
043800,20.3417, 31 Oct 2015, 04:38:35
043830,20.3406, 31 Oct 2015, 04:39:05
043900,20.3412, 31 Oct 2015, 04:39:36
043930,20.3424, 31 Oct 2015, 04:40:05
044000,20.3432, 31 Oct 2015, 04:40:35
044030,20.3445, 31 Oct 2015, 04:41:05
044100,20.3458, 31 Oct 2015, 04:41:36
044130,20.3463, 31 Oct 2015, 04:42:05
044200,20.3459, 31 Oct 2015, 04:42:35
044230,20.3455, 31 Oct 2015, 04:43:05
044300,20.3437, 31 Oct 2015, 04:43:35
044330,20.3433, 31 Oct 2015, 04:44:05
044400,20.3433, 31 Oct 2015, 04:44:35
044430,20.3432, 31 Oct 2015, 04:45:05
044500,20.3442, 31 Oct 2015, 04:45:35
044530,20.3458, 31 Oct 2015, 04:46:05
044600,20.3453, 31 Oct 2015, 04:46:35
044630,20.3458, 31 Oct 2015, 04:47:05
044700,20.3448, 31 Oct 2015, 04:47:35
044730,20.3429, 31 Oct 2015, 04:48:05
044800,20.3415, 31 Oct 2015, 04:48:35
044830,20.3406, 31 Oct 2015, 04:49:05
044930,20.3413, 31 Oct 2015, 04:50:05
045000,20.3429, 31 Oct 2015, 04:50:35
045030,20.3449, 31 Oct 2015, 04:51:05
045100,20.3458, 31 Oct 2015, 04:51:35
045130,20.3481, 31 Oct 2015, 04:52:05
045200,20.3495, 31 Oct 2015, 04:52:35
045230,20.3502, 31 Oct 2015, 04:53:05
045300,20.3503, 31 Oct 2015, 04:53:34
045330,20.3494, 31 Oct 2015, 04:54:05
045400,20.349, 31 Oct 2015, 04:54:35
045430,20.3484, 31 Oct 2015, 04:55:05
045500,20.3471, 31 Oct 2015, 04:55:34
045530,20.3466, 31 Oct 2015, 04:56:05
045600,20.3449, 31 Oct 2015, 04:56:35
045630,20.3435, 31 Oct 2015, 04:57:05
045700,20.343, 31 Oct 2015, 04:57:34
045730,20.3421, 31 Oct 2015, 04:58:05
045800,20.3429, 31 Oct 2015, 04:58:35
045830,20.3431, 31 Oct 2015, 04:59:05
045900,20.3441, 31 Oct 2015, 04:59:34
045930,20.344, 31 Oct 2015, 05:00:05
050000,20.345, 31 Oct 2015, 05:00:35
050030,20.3458, 31 Oct 2015, 05:01:05
050100,20.3468, 31 Oct 2015, 05:01:35
050130,20.3467, 31 Oct 2015, 05:02:04
050200,20.3459, 31 Oct 2015, 05:02:35
050230,20.345, 31 Oct 2015, 05:03:05
050300,20.3437, 31 Oct 2015, 05:03:34
050330,20.3427, 31 Oct 2015, 05:04:04
050400,20.3423, 31 Oct 2015, 05:04:35
050430,20.3421, 31 Oct 2015, 05:05:05
050500,20.3423, 31 Oct 2015, 05:05:35
050530,20.3427, 31 Oct 2015, 05:06:04
050600,20.3434, 31 Oct 2015, 05:06:34
050630,20.3427, 31 Oct 2015, 05:07:05
050700,20.3423, 31 Oct 2015, 05:07:35
050730,20.3419, 31 Oct 2015, 05:08:04
050800,20.3427, 31 Oct 2015, 05:08:34
050830,20.344, 31 Oct 2015, 05:09:05
050900,20.3452, 31 Oct 2015, 05:09:35
051000,20.3487, 31 Oct 2015, 05:10:34
051030,20.3503, 31 Oct 2015, 05:11:05
051100,20.3515, 31 Oct 2015, 05:11:35
051130,20.3513, 31 Oct 2015, 05:12:05
051200,20.3499, 31 Oct 2015, 05:12:34
051230,20.3489, 31 Oct 2015, 05:13:05
051300,20.3472, 31 Oct 2015, 05:13:36
051330,20.3466, 31 Oct 2015, 05:14:05
051400,20.3452, 31 Oct 2015, 05:14:35
051430,20.3448, 31 Oct 2015, 05:15:05
051500,20.3435, 31 Oct 2015, 05:15:36
051530,20.3432, 31 Oct 2015, 05:16:05
051600,20.3431, 31 Oct 2015, 05:16:35
051630,20.343, 31 Oct 2015, 05:17:05
051700,20.3435, 31 Oct 2015, 05:17:36
051730,20.3437, 31 Oct 2015, 05:18:05
051800,20.3432, 31 Oct 2015, 05:18:35
051830,20.3437, 31 Oct 2015, 05:19:05
051900,20.3437, 31 Oct 2015, 05:19:36